Photometre #845[NE_1.6_Dp] EastMalling_MO AOT

File : 20220919_845.hum

19/09/2022,06:36:20,TEMP=10.6,BA=5.60,STAT.A,ExtBa=12.20
19/09/2022,06:40:27,TEMP=10.8,BA=5.56,STAT.A,ExtBa=12.20
19/09/2022,06:45:15,TEMP=10.9,BA=5.56,STAT.A,ExtBa=12.20
19/09/2022,06:50:59,TEMP=11.0,BA=5.64,STAT.A,ExtBa=12.20
19/09/2022,06:57:54,TEMP=11.2,BA=5.64,STAT.A,ExtBa=12.20
19/09/2022,07:06:26,TEMP=11.4,BA=5.48,STAT.A,ExtBa=12.20
19/09/2022,07:17:15,TEMP=11.7,BA=5.60,STAT.B,ExtBa=12.20
19/09/2022,07:22:26,TEMP=12.0,BA=5.60,STAT.A,ExtBa=12.20
19/09/2022,07:28:16,TEMP=12.1,BA=5.60,STAT.A,ExtBa=12.20
19/09/2022,07:34:52,TEMP=12.3,BA=5.44,STAT.A,ExtBa=12.20
19/09/2022,07:42:23,TEMP=12.6,BA=5.68,STAT.A,ExtBa=12.20
19/09/2022,07:51:05,TEMP=12.9,BA=5.68,STAT.C,ExtBa=12.20
19/09/2022,08:01:14,TEMP=13.2,BA=5.64,STAT.A,ExtBa=12.20
19/09/2022,08:12:48,TEMP=13.7,BA=5.64,STAT.D,ExtBa=12.20
19/09/2022,08:14:21,TEMP=14.0,BA=5.64,STAT.b=2.0
19/09/2022,08:14:46,TEMP=14.1,BA=5.64,STAT.A,ExtBa=12.20
19/09/2022,08:27:24,TEMP=14.3,BA=5.64,STAT.D,ExtBa=12.20
19/09/2022,08:29:24,TEMP=14.9,BA=5.64,STAT.A,ExtBa=12.20
19/09/2022,08:33:24,TEMP=14.9,BA=5.44,STAT.D,ExtBa=12.20
19/09/2022,08:36:24,TEMP=15.1,BA=5.44,STAT.D,ExtBa=12.20
19/09/2022,08:39:24,TEMP=15.3,BA=5.44,STAT.D,ExtBa=12.10
19/09/2022,08:42:24,TEMP=15.4,BA=5.44,STAT.D,ExtBa=12.10
19/09/2022,08:45:24,TEMP=15.6,BA=5.44,STAT.D,ExtBa=12.10
19/09/2022,08:47:26,TEMP=16.0,BA=5.44,STAT.A,ExtBa=12.10
19/09/2022,08:51:24,TEMP=15.9,BA=5.48,STAT.D,ExtBa=12.10
19/09/2022,08:53:25,TEMP=16.4,BA=5.48,STAT.F,ExtBa=12.10
19/09/2022,09:18:34,TEMP=18.0,BA=5.40,STAT.D,ExtBa=12.00
19/09/2022,09:22:50,TEMP=17.7,BA=5.40,STAT.D,ExtBa=12.10
19/09/2022,09:27:24,TEMP=17.7,BA=5.40,STAT.D,ExtBa=12.10
19/09/2022,09:30:24,TEMP=17.8,BA=5.56,STAT.D,ExtBa=12.10
19/09/2022,09:33:24,TEMP=17.9,BA=5.56,STAT.D,ExtBa=12.10
19/09/2022,09:36:24,TEMP=18.0,BA=5.56,STAT.D,ExtBa=12.10
19/09/2022,09:38:21,TEMP=18.3,BA=5.56,STAT.D,ExtBa=12.10
19/09/2022,09:42:24,TEMP=18.0,BA=5.40,STAT.D,ExtBa=12.10
19/09/2022,09:45:24,TEMP=18.1,BA=5.40,STAT.D,ExtBa=12.10
19/09/2022,09:48:24,TEMP=18.2,BA=5.40,STAT.D,ExtBa=12.10
19/09/2022,09:51:24,TEMP=18.3,BA=5.44,STAT.D,ExtBa=12.10
19/09/2022,09:53:24,TEMP=18.6,BA=5.44,STAT.F,ExtBa=12.10
19/09/2022,10:18:47,TEMP=19.4,BA=5.40,STAT.D,ExtBa=12.10
19/09/2022,10:21:24,TEMP=19.6,BA=5.40,STAT.D,ExtBa=12.10
19/09/2022,10:23:22,TEMP=19.7,BA=5.40,STAT.D,ExtBa=12.00
19/09/2022,10:27:24,TEMP=19.4,BA=5.40,STAT.D,ExtBa=12.10
19/09/2022,10:30:24,TEMP=19.6,BA=5.44,STAT.D,ExtBa=12.10
19/09/2022,10:33:24,TEMP=19.6,BA=5.44,STAT.D,ExtBa=12.10
19/09/2022,10:36:24,TEMP=19.7,BA=5.44,STAT.D,ExtBa=12.10
19/09/2022,10:38:23,TEMP=20.1,BA=5.44,STAT.D,ExtBa=12.00
19/09/2022,10:42:24,TEMP=19.9,BA=5.36,STAT.D,ExtBa=12.10
19/09/2022,10:45:24,TEMP=20.0,BA=5.36,STAT.D,ExtBa=12.10
19/09/2022,10:52:52,TEMP=19.3,BA=5.44,STAT.F,ExtBa=12.10
19/09/2022,11:19:10,TEMP=20.4,BA=5.36,STAT.D,ExtBa=12.00
19/09/2022,11:22:50,TEMP=20.2,BA=5.36,STAT.D,ExtBa=12.00
19/09/2022,11:27:24,TEMP=20.1,BA=5.36,STAT.D,ExtBa=12.00
19/09/2022,11:30:24,TEMP=20.3,BA=5.44,STAT.D,ExtBa=12.00
19/09/2022,11:33:24,TEMP=20.5,BA=5.44,STAT.D,ExtBa=12.00
19/09/2022,11:37:50,TEMP=20.3,BA=5.44,STAT.D,ExtBa=12.00
19/09/2022,11:42:24,TEMP=20.1,BA=5.40,STAT.D,ExtBa=12.00
19/09/2022,11:45:24,TEMP=20.1,BA=5.40,STAT.D,ExtBa=12.00
19/09/2022,11:48:24,TEMP=20.1,BA=5.40,STAT.D,ExtBa=12.00
19/09/2022,11:51:24,TEMP=20.2,BA=5.36,STAT.D,ExtBa=12.00
19/09/2022,11:53:23,TEMP=20.5,BA=5.36,STAT.F,ExtBa=12.00
19/09/2022,12:06:24,TEMP=20.0,BA=5.48,STAT.D,ExtBa=12.10
19/09/2022,12:08:22,TEMP=20.5,BA=5.48,STAT.D,ExtBa=12.00
19/09/2022,12:12:24,TEMP=20.3,BA=5.36,STAT.D,ExtBa=12.10
19/09/2022,12:15:24,TEMP=20.4,BA=5.36,STAT.D,ExtBa=12.10
19/09/2022,12:18:24,TEMP=20.5,BA=5.36,STAT.D,ExtBa=12.00
19/09/2022,12:21:24,TEMP=20.5,BA=5.36,STAT.D,ExtBa=12.10
19/09/2022,12:23:26,TEMP=20.7,BA=5.36,STAT.D,ExtBa=12.00
19/09/2022,12:33:24,TEMP=19.8,BA=5.48,STAT.D,ExtBa=12.10
19/09/2022,12:36:24,TEMP=20.0,BA=5.48,STAT.D,ExtBa=12.10
19/09/2022,12:38:21,TEMP=20.5,BA=5.48,STAT.D,ExtBa=12.00
19/09/2022,12:42:24,TEMP=20.5,BA=5.36,STAT.D,ExtBa=12.10
19/09/2022,12:52:52,TEMP=20.0,BA=5.48,STAT.F,ExtBa=12.10
19/09/2022,13:07:50,TEMP=19.9,BA=5.32,STAT.D,ExtBa=12.00
19/09/2022,13:12:24,TEMP=20.2,BA=5.36,STAT.D,ExtBa=12.00
19/09/2022,13:15:24,TEMP=20.7,BA=5.36,STAT.D,ExtBa=12.10
19/09/2022,13:18:24,TEMP=21.0,BA=5.36,STAT.D,ExtBa=12.10
19/09/2022,13:22:50,TEMP=20.7,BA=5.36,STAT.D,ExtBa=12.10
19/09/2022,13:36:24,TEMP=20.2,BA=5.44,STAT.D,ExtBa=12.10
19/09/2022,13:38:21,TEMP=20.5,BA=5.44,STAT.D,ExtBa=12.00
19/09/2022,13:51:24,TEMP=19.9,BA=5.48,STAT.D,ExtBa=12.10
19/09/2022,13:53:19,TEMP=20.3,BA=5.48,STAT.F,ExtBa=12.00
19/09/2022,14:06:24,TEMP=19.8,BA=5.48,STAT.D,ExtBa=12.10
19/09/2022,14:08:23,TEMP=20.2,BA=5.48,STAT.D,ExtBa=12.00
19/09/2022,14:12:24,TEMP=20.1,BA=5.36,STAT.D,ExtBa=12.10
19/09/2022,14:15:24,TEMP=20.2,BA=5.36,STAT.D,ExtBa=12.00
19/09/2022,14:22:50,TEMP=20.0,BA=5.48,STAT.D,ExtBa=12.10
19/09/2022,14:29:19,TEMP=20.1,BA=5.48,STAT.D,ExtBa=12.10
19/09/2022,14:37:50,TEMP=19.9,BA=5.32,STAT.D,ExtBa=12.10
19/09/2022,14:42:24,TEMP=19.9,BA=5.40,STAT.D,ExtBa=12.10
19/09/2022,14:45:24,TEMP=20.0,BA=5.40,STAT.D,ExtBa=12.10
19/09/2022,14:48:24,TEMP=20.0,BA=5.40,STAT.D,ExtBa=12.00
19/09/2022,14:51:24,TEMP=20.1,BA=5.36,STAT.D,ExtBa=12.00
19/09/2022,14:53:23,TEMP=20.4,BA=5.36,STAT.F,ExtBa=12.00
19/09/2022,15:04:11,TEMP=20.0,BA=5.32,STAT.A,ExtBa=12.00
19/09/2022,15:15:24,TEMP=18.8,BA=5.48,STAT.D,ExtBa=12.10
19/09/2022,15:17:39,TEMP=19.0,BA=5.48,STAT.A,ExtBa=12.10
19/09/2022,15:30:24,TEMP=18.3,BA=5.48,STAT.D,ExtBa=12.10
19/09/2022,15:32:23,TEMP=18.7,BA=5.48,STAT.A,ExtBa=12.10
19/09/2022,15:44:27,TEMP=18.5,BA=5.48,STAT.A,ExtBa=12.10
19/09/2022,15:54:37,TEMP=18.6,BA=5.48,STAT.C,ExtBa=12.10
19/09/2022,16:03:19,TEMP=18.4,BA=5.48,STAT.A,ExtBa=12.10
19/09/2022,16:10:50,TEMP=18.2,BA=5.48,STAT.A,ExtBa=12.10
19/09/2022,16:17:26,TEMP=18.2,BA=5.48,STAT.A,ExtBa=12.10
19/09/2022,16:23:15,TEMP=18.1,BA=5.44,STAT.A,ExtBa=12.10
19/09/2022,16:28:27,TEMP=18.1,BA=5.44,STAT.B,ExtBa=12.10
19/09/2022,16:39:16,TEMP=18.0,BA=5.36,STAT.A,ExtBa=12.10
19/09/2022,16:42:23,TEMP=18.1,BA=5.40,STAT.D,ExtBa=12.10
19/09/2022,16:47:48,TEMP=18.0,BA=5.40,STAT.A,ExtBa=12.10
19/09/2022,16:51:23,TEMP=18.0,BA=5.44,STAT.D,ExtBa=12.10
19/09/2022,16:54:43,TEMP=18.1,BA=5.44,STAT.A,ExtBa=12.10
19/09/2022,16:57:23,TEMP=18.1,BA=5.44,STAT.D,ExtBa=12.10
19/09/2022,17:00:27,TEMP=18.0,BA=5.44,STAT.A,ExtBa=12.10
19/09/2022,17:05:15,TEMP=17.7,BA=5.44,STAT.A,ExtBa=12.10
19/09/2022,17:09:21,TEMP=17.6,BA=5.44,STAT.A,ExtBa=12.10